AEE242 LGAV-LQSA

Flight info

Callsign AEE242
Flight time 1h 20m
Altitude 36000
Route KOR UL53 IXONI DCT DIMIS DCT ODRAS DCT AKIKA DCT PODOB L608 KEB
Aircraft A320/M-SDE3FGHIRWY/LB1

Departure

Time 2026-04-21 13:24
Airport Athens Eleftherios Venizelos International Airport (LGAV)

Arrival

Time 2026-04-21 14:44
Airport Sarajevo International Airport (LQSA)
Time Latitude Longitude Altitude Speed Heading
2026-04-21 12:58 37.93837 23.95060 301 ft 0 kts 307°
2026-04-21 13:15 37.93836 23.95061 301 ft 1 kts 307°
2026-04-21 13:16 37.93821 23.95086 302 ft 4 kts 307°
2026-04-21 13:16 37.93809 23.95107 300 ft 4 kts 310°
2026-04-21 13:16 37.93790 23.95129 302 ft 4 kts 346°
2026-04-21 13:16 37.93771 23.95123 303 ft 4 kts 38°
2026-04-21 13:17 37.93761 23.95114 300 ft 0 kts 38°
2026-04-21 13:19 37.93773 23.95125 303 ft 6 kts 38°
2026-04-21 13:19 37.93828 23.95180 304 ft 13 kts 41°
2026-04-21 13:19 37.93871 23.95284 303 ft 15 kts 73°
2026-04-21 13:20 37.93861 23.95420 299 ft 17 kts 96°
2026-04-21 13:20 37.93933 23.95551 300 ft 20 kts 38°
2026-04-21 13:20 37.94050 23.95660 298 ft 22 kts 36°
2026-04-21 13:20 37.94177 23.95781 298 ft 24 kts 38°
2026-04-21 13:21 37.94314 23.95911 300 ft 25 kts 36°
2026-04-21 13:21 37.94460 23.96048 299 ft 27 kts 37°
2026-04-21 13:21 37.94615 23.96197 301 ft 29 kts 37°
2026-04-21 13:21 37.94778 23.96353 300 ft 30 kts 37°
2026-04-21 13:22 37.94948 23.96512 303 ft 31 kts 36°
2026-04-21 13:22 37.95123 23.96681 302 ft 32 kts 37°
2026-04-21 13:22 37.95282 23.96833 305 ft 22 kts 43°
2026-04-21 13:22 37.95260 23.96973 308 ft 17 kts 124°
2026-04-21 13:23 37.95163 23.96995 310 ft 16 kts 211°
2026-04-21 13:23 37.95074 23.96911 310 ft 28 kts 217°
2026-04-21 13:23 37.94720 23.96577 301 ft 99 kts 217°
2026-04-21 13:23 37.93983 23.95878 288 ft 162 kts 217°
2026-04-21 13:24 37.93046 23.95017 833 ft 163 kts 215°
2026-04-21 13:24 37.92124 23.94177 1496 ft 163 kts 215°
2026-04-21 13:24 37.91169 23.93395 2132 ft 165 kts 209°
2026-04-21 13:24 37.90126 23.92740 2800 ft 164 kts 205°
2026-04-21 13:25 37.89088 23.92139 3364 ft 172 kts 207°
2026-04-21 13:25 37.87973 23.91400 3819 ft 185 kts 210°
2026-04-21 13:25 37.86816 23.90589 4350 ft 196 kts 209°
2026-04-21 13:25 37.85563 23.89765 4792 ft 213 kts 208°
2026-04-21 13:26 37.84180 23.88873 5179 ft 235 kts 208°
2026-04-21 13:26 37.82712 23.87789 5647 ft 255 kts 221°
2026-04-21 13:26 37.81667 23.85942 6270 ft 266 kts 250°
2026-04-21 13:26 37.81483 23.83606 7048 ft 274 kts 280°
2026-04-21 13:27 37.82105 23.81320 7912 ft 277 kts 290°
2026-04-21 13:27 37.82840 23.79054 8754 ft 280 kts 291°
2026-04-21 13:27 37.83588 23.76772 9559 ft 282 kts 291°
2026-04-21 13:27 37.84342 23.74464 10294 ft 288 kts 291°
2026-04-21 13:28 37.85130 23.72029 10533 ft 310 kts 291°
2026-04-21 13:28 37.85969 23.69411 10692 ft 332 kts 291°
2026-04-21 13:28 37.86856 23.66632 11021 ft 347 kts 291°
2026-04-21 13:28 37.87766 23.63776 11654 ft 351 kts 291°
2026-04-21 13:29 37.88679 23.60900 12358 ft 353 kts 291°
2026-04-21 13:29 37.89598 23.58007 13046 ft 355 kts 291°
2026-04-21 13:29 37.90522 23.55107 13701 ft 357 kts 291°
2026-04-21 13:29 37.91455 23.52180 14334 ft 359 kts 291°
2026-04-21 13:30 37.92391 23.49243 14950 ft 361 kts 291°
2026-04-21 13:30 37.93332 23.46285 15529 ft 364 kts 291°
2026-04-21 13:30 37.94278 23.43296 16109 ft 367 kts 291°
2026-04-21 13:30 37.95230 23.40289 16701 ft 369 kts 291°
2026-04-21 13:31 37.96187 23.37269 17300 ft 371 kts 291°
2026-04-21 13:31 37.97150 23.34221 17889 ft 374 kts 291°
2026-04-21 13:31 37.98133 23.31108 18479 ft 377 kts 291°
2026-04-21 13:31 37.99096 23.28048 19042 ft 380 kts 291°
2026-04-21 13:32 38.00090 23.24888 19631 ft 382 kts 291°
2026-04-21 13:32 38.01078 23.21751 20181 ft 385 kts 291°
2026-04-21 13:32 38.02071 23.18591 20709 ft 387 kts 291°
2026-04-21 13:32 38.03066 23.15411 21193 ft 389 kts 291°
2026-04-21 13:33 38.04068 23.12205 21654 ft 391 kts 291°
2026-04-21 13:33 38.05072 23.08992 22097 ft 394 kts 291°
2026-04-21 13:33 38.06083 23.05758 22530 ft 396 kts 291°
2026-04-21 13:33 38.07105 23.02498 22951 ft 398 kts 291°
2026-04-21 13:34 38.08127 22.99230 23343 ft 400 kts 291°
2026-04-21 13:34 38.09153 22.95938 23733 ft 402 kts 291°
2026-04-21 13:34 38.09833 22.93748 23977 ft 403 kts 291°
2026-04-21 13:34 38.10864 22.90428 24342 ft 405 kts 291°
2026-04-21 13:35 38.11899 22.87091 24695 ft 407 kts 291°
2026-04-21 13:35 38.12938 22.83742 25060 ft 408 kts 291°
2026-04-21 13:35 38.13980 22.80380 25394 ft 411 kts 291°
2026-04-21 13:35 38.15028 22.76998 25738 ft 412 kts 291°
2026-04-21 13:36 38.16081 22.73591 26090 ft 414 kts 291°
2026-04-21 13:36 38.17134 22.70182 26417 ft 416 kts 291°
2026-04-21 13:36 38.18192 22.66753 26735 ft 418 kts 291°
2026-04-21 13:36 38.19253 22.63308 27092 ft 419 kts 291°
2026-04-21 13:37 38.20316 22.59867 27556 ft 417 kts 290°
2026-04-21 13:37 38.21384 22.56398 28012 ft 415 kts 290°
2026-04-21 13:37 38.22430 22.52991 28462 ft 413 kts 290°
2026-04-21 13:37 38.23472 22.49592 28893 ft 412 kts 290°
2026-04-21 13:38 38.24508 22.46205 29326 ft 411 kts 290°
2026-04-21 13:38 38.25542 22.42813 29733 ft 410 kts 290°
2026-04-21 13:38 38.26572 22.39438 30152 ft 409 kts 290°
2026-04-21 13:38 38.27598 22.36075 30576 ft 407 kts 290°
2026-04-21 13:39 38.28619 22.32719 30985 ft 406 kts 290°
2026-04-21 13:39 38.29638 22.29371 31400 ft 405 kts 290°
2026-04-21 13:39 38.30812 22.26110 31810 ft 405 kts 298°
2026-04-21 13:39 38.32419 22.23163 32194 ft 407 kts 308°
2026-04-21 13:40 38.34437 22.20626 32586 ft 410 kts 318°
2026-04-21 13:40 38.36752 22.18482 32966 ft 411 kts 321°
2026-04-21 13:40 38.39868 22.15675 33438 ft 410 kts 321°
2026-04-21 13:40 38.41406 22.14284 33677 ft 409 kts 321°
2026-04-21 13:41 38.43718 22.12185 34040 ft 408 kts 321°
2026-04-21 13:41 38.46026 22.10088 34393 ft 407 kts 321°
2026-04-21 13:41 38.48331 22.07991 34705 ft 406 kts 320°
2026-04-21 13:41 38.50629 22.05898 35031 ft 406 kts 320°
2026-04-21 13:42 38.52923 22.03810 35330 ft 405 kts 320°
2026-04-21 13:42 38.55217 22.01723 35569 ft 405 kts 320°
2026-04-21 13:42 38.57513 21.99633 35838 ft 405 kts 320°
2026-04-21 13:42 38.59806 21.97544 35951 ft 407 kts 320°
2026-04-21 13:43 38.64481 21.93278 35965 ft 416 kts 320°
2026-04-21 13:43 38.69199 21.88954 35959 ft 418 kts 320°
2026-04-21 13:44 38.73932 21.84617 35962 ft 418 kts 320°
2026-04-21 13:44 38.78694 21.80258 35959 ft 417 kts 320°
2026-04-21 13:45 38.83416 21.75926 35969 ft 418 kts 320°
2026-04-21 13:45 38.88141 21.71581 35970 ft 417 kts 320°
2026-04-21 13:46 38.92857 21.67230 35973 ft 418 kts 320°
2026-04-21 13:46 38.97573 21.62879 35972 ft 417 kts 320°
2026-04-21 13:47 39.02283 21.58519 35972 ft 417 kts 320°
2026-04-21 13:47 39.07000 21.54157 35974 ft 418 kts 320°
2026-04-21 13:48 39.11712 21.49786 35991 ft 417 kts 320°
2026-04-21 13:48 39.16415 21.45406 35999 ft 416 kts 320°
2026-04-21 13:49 39.21097 21.41046 35996 ft 416 kts 320°
2026-04-21 13:49 39.25779 21.36672 35995 ft 415 kts 320°
2026-04-21 13:50 39.30459 21.32302 35996 ft 415 kts 320°
2026-04-21 13:50 39.35134 21.27920 35998 ft 415 kts 320°
2026-04-21 13:51 39.39829 21.23514 35997 ft 415 kts 320°
2026-04-21 13:51 39.44497 21.19141 35996 ft 414 kts 320°
2026-04-21 13:52 39.49167 21.14765 35991 ft 414 kts 320°
2026-04-21 13:52 39.53818 21.10378 35985 ft 414 kts 320°
2026-04-21 13:53 39.58478 21.05976 35986 ft 414 kts 320°
2026-04-21 13:53 39.63132 21.01571 35985 ft 415 kts 320°
2026-04-21 13:54 39.67797 20.97156 35989 ft 415 kts 320°
2026-04-21 13:54 39.72454 20.92741 35985 ft 415 kts 320°
2026-04-21 13:55 39.77107 20.88314 35987 ft 414 kts 320°
2026-04-21 13:55 39.81754 20.83880 35992 ft 415 kts 320°
2026-04-21 13:56 39.86413 20.79443 35992 ft 415 kts 320°
2026-04-21 13:56 39.91070 20.75002 35994 ft 416 kts 320°
2026-04-21 13:57 39.95728 20.70542 35991 ft 415 kts 320°
2026-04-21 13:57 40.00381 20.66075 35989 ft 415 kts 320°
2026-04-21 13:58 40.05046 20.61637 35990 ft 416 kts 323°
2026-04-21 13:58 40.10444 20.58582 35989 ft 428 kts 342°
2026-04-21 13:59 40.16288 20.56976 35994 ft 429 kts 342°
2026-04-21 13:59 40.22128 20.55358 35991 ft 429 kts 342°
2026-04-21 14:00 40.27968 20.53725 35983 ft 429 kts 342°
2026-04-21 14:00 40.33805 20.52096 35984 ft 429 kts 342°
2026-04-21 14:01 40.39648 20.50470 35985 ft 429 kts 342°
2026-04-21 14:01 40.45486 20.48847 35986 ft 429 kts 342°
2026-04-21 14:02 40.51318 20.47217 35995 ft 429 kts 342°
2026-04-21 14:03 40.60063 20.44769 35985 ft 428 kts 342°
2026-04-21 14:03 40.65889 20.43124 35982 ft 429 kts 342°
2026-04-21 14:04 40.71730 20.41475 35986 ft 429 kts 342°
2026-04-21 14:04 40.77572 20.39823 35990 ft 430 kts 342°
2026-04-21 14:05 40.83416 20.38169 35986 ft 430 kts 342°
2026-04-21 14:05 40.89265 20.36512 35993 ft 430 kts 342°
2026-04-21 14:06 40.95115 20.34859 35982 ft 429 kts 342°
2026-04-21 14:06 41.00988 20.33192 35993 ft 429 kts 342°
2026-04-21 14:07 41.05840 20.31812 35991 ft 429 kts 342°
2026-04-21 14:07 41.12668 20.29872 35991 ft 429 kts 342°
2026-04-21 14:08 41.17520 20.28487 35991 ft 429 kts 342°
2026-04-21 14:08 41.23352 20.26808 35996 ft 429 kts 342°
2026-04-21 14:09 41.29181 20.25127 35995 ft 429 kts 342°
2026-04-21 14:09 41.35013 20.23452 35995 ft 429 kts 342°
2026-04-21 14:10 41.40842 20.21780 35992 ft 429 kts 342°
2026-04-21 14:10 41.46674 20.20103 35990 ft 429 kts 342°
2026-04-21 14:11 41.52549 20.18403 35998 ft 428 kts 342°
2026-04-21 14:11 41.58165 20.16166 35991 ft 420 kts 331°
2026-04-21 14:12 41.63556 20.13032 35990 ft 420 kts 331°
2026-04-21 14:12 41.68923 20.09944 35989 ft 420 kts 331°
2026-04-21 14:13 41.74287 20.06852 35988 ft 420 kts 331°
2026-04-21 14:13 41.79648 20.03743 35988 ft 419 kts 331°
2026-04-21 14:14 41.84998 20.00627 35984 ft 420 kts 331°
2026-04-21 14:14 41.90357 19.97500 35989 ft 420 kts 331°
2026-04-21 14:15 41.95718 19.94392 35984 ft 419 kts 331°
2026-04-21 14:15 42.01073 19.91269 35986 ft 420 kts 331°
2026-04-21 14:16 42.06430 19.88142 35983 ft 420 kts 331°
2026-04-21 14:16 42.11800 19.84997 35982 ft 420 kts 331°
2026-04-21 14:17 42.17159 19.81846 35985 ft 421 kts 331°
2026-04-21 14:17 42.22525 19.78679 35984 ft 421 kts 331°
2026-04-21 14:18 42.27883 19.75522 35979 ft 420 kts 331°
2026-04-21 14:18 42.33240 19.72359 35972 ft 420 kts 331°
2026-04-21 14:19 42.38627 19.69170 35971 ft 420 kts 331°
2026-04-21 14:19 42.43984 19.66004 35671 ft 420 kts 331°
2026-04-21 14:19 42.46663 19.64419 35417 ft 419 kts 331°
2026-04-21 14:20 42.49329 19.62837 35162 ft 418 kts 331°
2026-04-21 14:20 42.51992 19.61250 34915 ft 419 kts 331°
2026-04-21 14:20 42.54714 19.59801 34667 ft 422 kts 336°
2026-04-21 14:20 42.57497 19.58539 34412 ft 422 kts 336°
2026-04-21 14:21 42.60285 19.57279 34167 ft 422 kts 336°
2026-04-21 14:21 42.63063 19.56023 33918 ft 421 kts 336°
2026-04-21 14:21 42.65842 19.54763 33665 ft 421 kts 336°
2026-04-21 14:21 42.68618 19.53499 33420 ft 421 kts 336°
2026-04-21 14:22 42.71395 19.52228 33172 ft 422 kts 335°
2026-04-21 14:22 42.74177 19.50956 32919 ft 422 kts 335°
2026-04-21 14:22 42.76960 19.49686 32668 ft 422 kts 335°
2026-04-21 14:22 42.79749 19.48415 32417 ft 423 kts 335°
2026-04-21 14:23 42.82541 19.47144 32165 ft 423 kts 335°
2026-04-21 14:23 42.85333 19.45871 31910 ft 424 kts 335°
2026-04-21 14:23 42.88135 19.44590 31651 ft 424 kts 335°
2026-04-21 14:23 42.90930 19.43311 31414 ft 425 kts 335°
2026-04-21 14:24 42.93734 19.42027 31168 ft 425 kts 335°
2026-04-21 14:24 42.96536 19.40739 30912 ft 425 kts 335°
2026-04-21 14:24 42.99337 19.39446 30665 ft 426 kts 335°
2026-04-21 14:24 43.02151 19.38143 30414 ft 426 kts 335°
2026-04-21 14:25 43.04955 19.36846 30162 ft 426 kts 335°
2026-04-21 14:25 43.07765 19.35548 29912 ft 427 kts 335°
2026-04-21 14:25 43.10583 19.34251 29662 ft 428 kts 335°
2026-04-21 14:25 43.13404 19.32949 29412 ft 428 kts 335°
2026-04-21 14:26 43.16273 19.31626 29158 ft 429 kts 335°
2026-04-21 14:26 43.19105 19.30321 28907 ft 430 kts 335°
2026-04-21 14:26 43.21910 19.29024 28659 ft 431 kts 335°
2026-04-21 14:26 43.24786 19.27684 28402 ft 432 kts 335°
2026-04-21 14:27 43.27635 19.26353 28148 ft 433 kts 335°
2026-04-21 14:27 43.30493 19.25024 27904 ft 434 kts 335°
2026-04-21 14:27 43.33352 19.23699 27661 ft 435 kts 335°
2026-04-21 14:27 43.36219 19.22371 27403 ft 435 kts 335°
2026-04-21 14:28 43.39091 19.21038 27152 ft 436 kts 335°
2026-04-21 14:28 43.41962 19.19702 26903 ft 436 kts 335°
2026-04-21 14:28 43.44839 19.18354 26653 ft 437 kts 335°
2026-04-21 14:28 43.47718 19.17003 26397 ft 438 kts 335°
2026-04-21 14:29 43.50535 19.15462 25730 ft 431 kts 328°
2026-04-21 14:29 43.53073 19.13338 24601 ft 425 kts 318°
2026-04-21 14:29 43.55259 19.10678 23766 ft 414 kts 309°
2026-04-21 14:29 43.57096 19.07696 23000 ft 405 kts 305°
2026-04-21 14:30 43.58848 19.04688 22242 ft 400 kts 305°
2026-04-21 14:30 43.60588 19.01721 21485 ft 395 kts 305°
2026-04-21 14:30 43.62304 18.98800 20756 ft 390 kts 306°
2026-04-21 14:30 43.64003 18.95897 20018 ft 386 kts 306°
2026-04-21 14:31 43.65672 18.93039 19312 ft 380 kts 306°
2026-04-21 14:31 43.67323 18.90203 18623 ft 377 kts 306°
2026-04-21 14:31 43.68954 18.87400 17944 ft 375 kts 306°
2026-04-21 14:31 43.70582 18.84596 17285 ft 372 kts 306°
2026-04-21 14:32 43.72197 18.81813 16661 ft 370 kts 306°
2026-04-21 14:32 43.73802 18.79041 16039 ft 368 kts 306°
2026-04-21 14:32 43.75390 18.76292 15433 ft 365 kts 306°
2026-04-21 14:32 43.76966 18.73561 14833 ft 361 kts 306°
2026-04-21 14:33 43.78524 18.70859 14245 ft 357 kts 307°
2026-04-21 14:33 43.80089 18.68144 13633 ft 354 kts 307°
2026-04-21 14:33 43.81594 18.65538 13030 ft 349 kts 307°
2026-04-21 14:33 43.83104 18.62923 12421 ft 346 kts 307°
2026-04-21 14:34 43.84617 18.60298 11795 ft 344 kts 308°
2026-04-21 14:34 43.86106 18.57708 11175 ft 342 kts 308°
2026-04-21 14:34 43.87562 18.55170 10988 ft 328 kts 308°
2026-04-21 14:34 43.88947 18.52751 10864 ft 314 kts 308°
2026-04-21 14:35 43.90278 18.50424 10736 ft 302 kts 308°
2026-04-21 14:35 43.91554 18.48179 10610 ft 291 kts 306°
2026-04-21 14:35 43.92555 18.45790 10394 ft 285 kts 294°
2026-04-21 14:35 43.93146 18.43191 10137 ft 282 kts 282°
2026-04-21 14:36 43.93321 18.40486 9923 ft 283 kts 270°
2026-04-21 14:36 43.93271 18.37745 9804 ft 285 kts 269°
2026-04-21 14:36 43.93229 18.34985 9674 ft 286 kts 270°
2026-04-21 14:36 43.93191 18.32216 9548 ft 287 kts 270°
2026-04-21 14:37 43.93152 18.29430 9066 ft 295 kts 269°
2026-04-21 14:37 43.93110 18.26583 8757 ft 292 kts 269°
2026-04-21 14:37 43.93068 18.23768 8405 ft 291 kts 269°
2026-04-21 14:37 43.93024 18.20961 7970 ft 293 kts 269°
2026-04-21 14:38 43.92976 18.18059 7152 ft 308 kts 269°
2026-04-21 14:38 43.92925 18.15031 6523 ft 316 kts 269°
2026-04-21 14:38 43.92871 18.12030 6328 ft 306 kts 269°
2026-04-21 14:38 43.92820 18.09139 6189 ft 295 kts 269°
2026-04-21 14:39 43.92769 18.06342 6063 ft 284 kts 268°
2026-04-21 14:39 43.92352 18.03737 5889 ft 276 kts 240°
2026-04-21 14:39 43.91030 18.01914 5633 ft 269 kts 205°
2026-04-21 14:39 43.89246 18.01502 5440 ft 259 kts 168°
2026-04-21 14:40 43.87704 18.02597 5293 ft 248 kts 131°
2026-04-21 14:40 43.87013 18.04676 5174 ft 237 kts 93°
2026-04-21 14:40 43.87069 18.06900 5054 ft 227 kts 86°
2026-04-21 14:40 43.87122 18.08360 4978 ft 221 kts 86°
2026-04-21 14:41 43.87194 18.10448 4828 ft 214 kts 87°
2026-04-21 14:41 43.87265 18.12495 4590 ft 211 kts 86°
2026-04-21 14:41 43.87335 18.14520 4341 ft 209 kts 86°
2026-04-21 14:41 43.87404 18.16526 4086 ft 208 kts 86°
2026-04-21 14:42 43.87439 18.18513 3825 ft 205 kts 95°
2026-04-21 14:42 43.87104 18.20426 3564 ft 204 kts 110°
2026-04-21 14:42 43.86534 18.22195 3315 ft 197 kts 115°
2026-04-21 14:42 43.85939 18.23826 3024 ft 182 kts 116°
2026-04-21 14:43 43.85374 18.25344 2771 ft 171 kts 116°
2026-04-21 14:43 43.84851 18.26751 2579 ft 160 kts 116°
2026-04-21 14:43 43.84353 18.28106 2360 ft 157 kts 116°
2026-04-21 14:43 43.83847 18.29428 2097 ft 154 kts 117°
2026-04-21 14:44 43.83355 18.30739 1836 ft 153 kts 116°
2026-04-21 14:44 43.82870 18.32049 1690 ft 151 kts 117°
2026-04-21 14:44 43.82466 18.33126 1691 ft 89 kts 117°
2026-04-21 14:44 43.82304 18.33566 1695 ft 8 kts 118°
2026-04-21 14:45 43.82299 18.33577 1695 ft 3 kts 117°
2026-04-21 14:45 43.82286 18.33616 1696 ft 7 kts 111°
2026-04-21 14:45 43.82338 18.33669 1693 ft 13 kts 355°
2026-04-21 14:45 43.82377 18.33656 1689 ft 4 kts 343°
2026-04-21 14:46 43.82418 18.33640 1688 ft 6 kts 343°
2026-04-21 14:46 43.82447 18.33618 1685 ft 2 kts 323°
2026-04-21 14:46 43.82456 18.33608 1685 ft 1 kts 315°
2026-04-21 14:46 43.82461 18.33599 1685 ft 2 kts 309°
2026-04-21 14:47 43.82471 18.33577 1688 ft 4 kts 301°
2026-04-21 14:47 43.82480 18.33556 1686 ft 0 kts 299°
2026-04-21 14:47 43.82480 18.33555 1689 ft 0 kts 298°
2026-04-21 14:47 43.82489 18.33532 1686 ft 4 kts 303°
2026-04-21 14:48 43.82520 18.33528 1687 ft 6 kts 22°
2026-04-21 14:48 43.82537 18.33545 1686 ft 3 kts 36°
2026-04-21 14:48 43.82549 18.33554 1686 ft 2 kts 27°
2026-04-21 14:48 43.82557 18.33560 1686 ft 2 kts 27°
2026-04-21 14:49 43.82561 18.33562 1686 ft 1 kts 27°
2026-04-21 14:49 43.82561 18.33563 1686 ft 0 kts 27°